Location: Eppenbrunn
(49.1158°N, 7.5601°E)
Time: 02:55:19
(UTC+00:00)

ERBS - Pass Details

Date: 09 April 2020
Orbit: 409 x 427 km, 57.0° (Epoch: 06 June)

Event Time Altitude Azimuth Distance (km) Brightness Sun altitude
Rises 20:08:03 0° 303° (WNW) 2,399 7.8 -17.8°
Reaches altitude 10° 20:10:09 10° 301° (WNW) 1,530 6.4 -18.0°
Maximum altitude 20:13:33 68° 219° (SW) 466 2.4 -18.5°
Enters shadow 20:14:01 58° 169° (S) 505 2.3 -18.5°
